Roanoke, VA

1:59 PM EST on February 12, 2016 (GMT -0500)
Roanoke Regional-Woodrum

Weather History for KROA - February, 2014

Change the Weather History Date:

Tuesday, February 18, 2014

  Actual Average Record
Temperature  
Mean Temperature 41 °F 40 °F  
Max Temperature 56 °F 50 °F 72 °F (1971)
Min Temperature 26 °F 30 °F 4 °F (1958)
Degree Days  
Heating Degree Days 24 25  
Month to date heating degree days 522 476  
Since 1 July heating degree days 3160 2968  
Cooling Degree Days 0 0  
Month to date cooling degree days 0 0  
Year to date cooling degree days 0 0  
Moisture  
Dew Point 21 °F    
Average Humidity 49    
Maximum Humidity 78    
Minimum Humidity 20    
Precipitation  
Precipitation 0.00 in 0.11 in 1.67 in (1940)
Month to date precipitation 4.12 1.88  
Year to date precipitation 5.93 4.80  
Snow  
Snow 0.00 in - - ()
Month to date snowfall 19.0  
Since 1 July snowfall 22.4  
Snow Depth 4.00 in    
Sea Level Pressure  
Sea Level Pressure 30.13 in    
Wind  
Wind Speed 6 mph (SSW)    
Max Wind Speed 20 mph    
Max Gust Speed 28 mph    
Visibility 10 miles    
Events      
T = Trace of Precipitation, MM = Missing Value Source: NWS Daily Summary

Daily Weather History Graph

Daily Weather History Graph

Search for Another Location

Airport or City:

Trip Planner

Search our weather history database for the weather conditions in past years. The results will help you decide how hot, cold, wet, or windy it might be!

Date:

Astronomy

Feb. 18, 2014 Rise Set
Actual Time 7:05 AM EST 6:02 PM EST
Civil Twilight 6:38 AM EST 6:29 PM EST
Nautical Twilight 6:08 AM EST 6:59 PM EST
Astronomical Twilight 5:38 AM EST 7:30 PM EST
Moon 9:48 PM EST (2/18) 8:42 AM EST (2/18)
Length of Visible Light 11h 50m
Length of Day
10h 57m
Waning Gibbous, 87% of the Moon is Illuminated
Feb 18
Waning Gibbous
Feb 22
Last Quarter
Mar 1
New
Mar 8
First Quarter
Mar 16
Full

Hourly Weather History & Observations

Time (EST) Temp. Windchill Dew Point Humidity Pressure Visibility Wind Dir Wind Speed Gust Speed Precip Events Conditions
12:54 AM 33.1 °F 26.1 °F 23.0 °F 66% 30.17 in 10.0 mi SE 8.1 mph - N/A   Overcast
1:54 AM 33.1 °F 25.5 °F 24.1 °F 70% 30.13 in 10.0 mi SE 9.2 mph - N/A   Overcast
2:54 AM 35.1 °F - 23.0 °F 61% 30.11 in 10.0 mi Calm Calm - N/A   Overcast
3:54 AM 34.0 °F 29.8 °F 24.1 °F 67% 30.12 in 10.0 mi East 4.6 mph - N/A   Overcast
4:54 AM 30.9 °F - 23.0 °F 72% 30.13 in 10.0 mi Calm Calm - N/A   Clear
5:54 AM 30.0 °F - 21.9 °F 72% 30.14 in 10.0 mi Calm Calm - N/A   Clear
6:54 AM 30.0 °F - 21.9 °F 72% 30.15 in 10.0 mi Calm Calm - N/A   Clear
7:54 AM 28.9 °F 25.2 °F 23.0 °F 78% 30.16 in 8.0 mi SE 3.5 mph - N/A   Clear
8:54 AM 39.9 °F 35.1 °F 23.0 °F 51% 30.14 in 10.0 mi South 6.9 mph - N/A   Clear
9:54 AM 48.0 °F - 18.0 °F 30% 30.15 in 10.0 mi West 10.4 mph 18.4 mph N/A   Partly Cloudy
10:54 AM 50.0 °F - 19.0 °F 29% 30.16 in 10.0 mi West 15.0 mph 20.7 mph N/A   Partly Cloudy
11:54 AM 51.1 °F - 17.1 °F 26% 30.16 in 10.0 mi West 10.4 mph 26.5 mph N/A   Partly Cloudy
12:54 PM 53.1 °F - 17.1 °F 24% 30.14 in 10.0 mi WSW 8.1 mph 18.4 mph N/A   Partly Cloudy
1:54 PM 53.1 °F - 16.0 °F 23% 30.13 in 10.0 mi SW 12.7 mph - N/A   Partly Cloudy
2:54 PM 55.0 °F - 15.1 °F 21% 30.12 in 10.0 mi WSW 12.7 mph 18.4 mph N/A   Scattered Clouds
3:54 PM 55.0 °F - 16.0 °F 22% 30.12 in 10.0 mi SW 6.9 mph - N/A   Scattered Clouds
4:54 PM 55.0 °F - 17.1 °F 23% 30.12 in 10.0 mi SW 8.1 mph - N/A   Scattered Clouds
5:54 PM 53.1 °F - 18.0 °F 25% 30.12 in 10.0 mi WSW 6.9 mph - N/A   Scattered Clouds
6:54 PM 50.0 °F - 19.0 °F 29% 30.13 in 10.0 mi WSW 3.5 mph - N/A   Scattered Clouds
7:54 PM 44.1 °F 39.5 °F 24.1 °F 45% 30.13 in 10.0 mi SSE 8.1 mph - N/A   Partly Cloudy
8:54 PM 43.0 °F 41.3 °F 24.1 °F 47% 30.11 in 10.0 mi East 3.5 mph - N/A   Clear
9:54 PM 39.0 °F - 26.1 °F 60% 30.09 in 10.0 mi Calm Calm - N/A   Clear
10:54 PM 36.0 °F - 26.1 °F 67% 30.08 in 10.0 mi Calm Calm - N/A   Scattered Clouds
11:54 PM 36.0 °F - 26.1 °F 67% 30.09 in 10.0 mi Calm Calm - N/A   Partly Cloudy